Tracking 29892 objects as of 21-Nov-2024
HD Live streaming from Space Station
objects crossing your sky now

CZ-6A DEB

Track CZ-6A DEB now!
10-day predictions


NORAD ID: 55882
Int'l Code: 2022-151AAE
Perigee: 822.3 km
Apogee: 891.4 km
Inclination: 98.8 °
Period: 101.9 minutes
Semi major axis: 7227 km
RCS: Unknown
Launch date: November 11, 2022
Source: People's Republic of China (PRC)
Launch site: Taiyaun Space Center, China (TSC)

Note: This is SATELLITE DEBRIS
Your satellite tracking list
Your tracking list is empty




NASA's NSSDC Master Catalog

Two Line Element Set (TLE):
1 55882U 22151AAE 24325.83731834  .00003035  00000-0  16379-2 0  9991
2 55882  98.8144 325.2709 0047850 164.6400 195.6237 14.12826493 92023
Source of the keplerian elements: AFSPC